Flag for South Korea Weather past 2 weeks in Incheon, South Korea

Now
64 °F

Clear.


Feels Like: 64 °F
Forecast: 61 / 78 °F
Wind: 2 mph from Northeast

Location: Incheon International Airport

Current Time: May 29, 2015 at 12:15:38 AM

Latest Report: May 28, 2015 at 11:30 PM


Visibility: 10 mi

Pressure: 29.80 "Hg

Humidity: 56%

Dew point: 48 °F

Location of IncheonLocation

Historic Weather in Incheon — Graph

°F

Incheon temperature yesterday

Maximum temperature yesterday: 81 °F (at 1:00 PM)
Minimum temperature yesterday: 59 °F (at 4:00 AM)
Average temperature yesterday: 70 °F

Past Weeks' High & Low Weather Summary

 TemperatureHumidityPressure
High81 °F (May 28, 1:00 PM)94% (May 15, 5:30 AM)29.98 "Hg (May 15, 5:30 AM)
Low46 °F (May 20, 4:00 AM)15% (May 16, 12:00 PM)29.59 "Hg (May 18, 6:30 PM)
Average62 °F61%29.82 "Hg
* Reported May 13 11:00 PM — May 28 11:00 PM, Incheon, Weather by CustomWeather, © 2015

Note: Actual official high and low records may vary slightly from our data, if they occured in-between our weather recording intervals... More about our weather records

Advertising

Incheon weather history for previous 24 hours

 ConditionsComfort  
Time TempWeatherWind HumidityBarometerVisibility
11:00 PM
Thu, May 28
68 °FPassing clouds.3 mph46%29.80 "HgN/A
10:30 PM68 °FClear.3 mph49%29.80 "Hg10 mi
10:00 PM66 °FPassing clouds.3 mph56%29.80 "HgN/A
9:30 PM66 °FClear.6 mph49%29.80 "Hg10 mi
9:00 PM66 °FClear.1 mph52%29.80 "Hg10 mi
8:30 PM66 °FSunny.6 mph49%29.80 "Hg10 mi
8:00 PM68 °FSunny.8 mph38%29.80 "Hg10 mi
7:30 PM68 °FSunny.7 mph33%29.77 "Hg10 mi
7:00 PM68 °FSunny.10 mph33%29.77 "Hg10 mi
6:30 PM73 °FSunny.7 mph20%29.77 "Hg10 mi
6:00 PM75 °FSunny.7 mph21%29.74 "Hg10 mi
5:30 PM75 °FSunny.6 mph19%29.74 "Hg10 mi
5:00 PM75 °FSunny.8 mph18%29.77 "Hg10 mi
4:30 PM73 °FSunny.13 mph25%29.77 "Hg10 mi
4:00 PM77 °FSunny.6 mph19%29.77 "Hg10 mi
3:30 PM79 °FPassing clouds.7 mph20%29.77 "HgN/A
3:00 PM75 °FSunny.10 mph22%29.77 "Hg10 mi
2:30 PM77 °FSunny.12 mph18%29.80 "Hg10 mi
2:00 PM79 °FSunny.13 mph18%29.80 "Hg10 mi
1:30 PM79 °FSunny.13 mph18%29.80 "Hg10 mi
1:00 PM81 °FClear.9 mph16%29.80 "Hg6 mi
12:30 PM79 °FClear.10 mph24%29.80 "Hg6 mi
12:00 PM77 °FClear.12 mph28%29.80 "Hg6 mi
11:30 AM77 °FClear.8 mph30%29.80 "Hg6 mi
11:00 AM79 °FClear.7 mph21%29.80 "Hg6 mi
10:30 AM75 °FClear.6 mph22%29.80 "Hg6 mi
10:00 AM77 °FPassing clouds.3 mph26%29.80 "HgN/A
9:30 AM75 °FPassing clouds.5 mph27%29.80 "HgN/A
9:00 AM73 °FSunny.3 mph31%29.80 "Hg10 mi
8:30 AM73 °FPassing clouds.6 mph31%29.83 "HgN/A
8:00 AM72 °FPassing clouds.3 mph36%29.80 "HgN/A
7:30 AM68 °FSunny.3 mph43%29.80 "Hg10 mi
7:00 AM64 °FSunny.6 mph52%29.80 "Hg10 mi
6:30 AM63 °FSunny.5 mph64%29.80 "Hg10 mi
6:00 AM59 °FClear.6 mph72%29.80 "Hg10 mi
5:30 AM61 °FPassing clouds.2 mph63%29.80 "HgN/A
5:00 AM61 °FClear.3 mph63%29.80 "Hg10 mi
4:30 AM61 °FClear.3 mph59%29.80 "Hg10 mi
4:00 AM59 °FClear.2 mph68%29.80 "Hg10 mi
3:30 AM61 °FClear.1 mph63%29.80 "Hg10 mi
3:00 AM61 °FClear.2 mph59%29.80 "Hg10 mi
2:30 AM63 °FClear.1 mph59%29.80 "Hg10 mi
2:00 AM63 °FClear.2 mph49%29.80 "Hg10 mi
1:30 AM66 °FClear.2 mph37%29.80 "Hg10 mi
1:00 AM64 °FClear.1 mph40%29.80 "Hg10 mi
12:30 AM64 °FClear.1 mph37%29.80 "Hg10 mi
12:00 AM66 °FClear.2 mph35%29.80 "Hg10 mi
Weather by CustomWeather, © 2015

See weather overviewHow to use our weather pages